Other Public Products
Issued by NWS Grand Forks, ND

Home | Current Version | Previous Version | Graphics & Text | Print | Product List | Glossary On
Versions: 1 2 3 4 5 6 7 8 9 10 11 12 13 14 15 16 17 18 19 20 21 22 23 24 25 26 27 28 29 30 31 32 33 34 35 36 37 38 39 40 41 42 43 44 45 46 47 48 49 50
000
FPUS83 KFGF 192331
OPUFGF
PRAIRIE TO PINES WEATHER ROUNDUP
NATIONAL WEATHER SERVICE EASTERN NORTH DAKOTA/GRAND FORKS ND
600 PM CDT TUE SEP 19 2017

 **SATELLITE DATA USED TO AUGMENT SKY COVER AT AUTOMATED STATIONS**
 *****  WEATHER ACROSS EASTERN NORTH DAKOTA  *****

CITY           SKY/WX    TMP DP  RH WIND       PRES   REMARKS
GRAND FORKS    TSTM      69  66  90 SE16      29.53F
GRAND FORKS AF TSTM      68  65  93 SE18      29.50F
GRAND CITY NWS NOT AVBL
BUXTON           N/A    N/A N/A N/A CALM        N/A
DEVILS LAKE    RAIN      66  64  93 SE16      29.48S
FARGO          FAIR      73  64  73 E24G38    29.40F THUNDER
WAHPETON ARPT  FAIR      73  63  68 SE23G30   29.48F
$$

 *****  WEATHER ACROSS CENTRAL AND WESTERN NORTH DAKOTA  *****

CITY           SKY/WX    TMP DP  RH WIND       PRES   REMARKS
JAMESTOWN      FAIR      67  63  87 SE12      29.43F THUNDER
BISMARCK       FAIR      65  47  52 NW12G22   29.46R
MINOT          FAIR      65  53  65 W9        29.45R
MINOT AFB      PTSUNNY   65  52  62 W16       29.42S
GARRISON         N/A     61  54  77 W14       29.49R
WILLISTON      CLOUDY    61  40  45 W20G26    29.51R
DICKINSON      LGT RAIN  54  50  86 SW9       29.57R
HETTINGER      LGT RAIN  51  47  86 W16       29.62R
$$

 *****  OTHER OBSERVATIONS NORTHEAST NORTH DAKOTA  *****

CITY           SKY/WX    TMP DP  RH WIND       PRES   REMARKS
WALHALLA       FAIR     N/A N/A N/A SE22G28   29.46S
LANGDON        MOCLDY    66  66 100 SE17      29.48S
CAVALIER       CLOUDY    70  63  78 SE15G22   29.47S
GRAFTON        FAIR      68  66  94 SE25G32   29.47F
CANDO          CLOUDY    64  66 100 SE21      29.47S
FORT TOTTEN      N/A     66  65  96 SE8       29.95
ROLLA          CLOUDY    64  64 100 S14G22    29.43F THUNDER
RUGBY          MOCLDY    68  68 100 S10       29.42S
 ***** THE ABOVE OBSERVATIONS ARE NON NWS ARE NOT QUALITY
        CONTROLLED AND MAY MIS-REPORT RAIN FOR SNOW...
$$

 *****  OTHER OBSERVATIONS SOUTHEAST NORTH DAKOTA *****

CITY           SKY/WX    TMP DP  RH WIND       PRES   REMARKS
COOPERSTOWN    MOCLDY    66  66 100 SE13G22   29.46R
VALLEY CITY    RAIN      64  64 100 E8        29.47F
OAKES          NOT AVBL
GWINNER        CLOUDY    73  66  78 SE16      29.46S
SHEYENNE NWR     N/A     74  67  77 SE23      29.95S
BUFFALO          N/A     61  59  92 NW10        N/A
WYNDMERE       NOT AVBL
 ***** THE ABOVE OBSERVATIONS ARE NON NWS ARE NOT QUALITY
       CONTROLLED AND MAY MIS-REPORT RAIN FOR SNOW...
$$

  *****  WEATHER ACROSS NORTHERN MINNESOTA  *****

CITY           SKY/WX    TMP DP  RH WIND       PRES   REMARKS
FLAG ISLAND    FAIR      66  59  77 SE7       29.66S
WARROAD        FAIR      68  63  83 SE16G22   29.64F
ROSEAU         FAIR      70  61  73 SE16G25   29.61F
HALLOCK        FAIR      72  63  73 SE21      29.50F
THF RVR FALLS  FAIR      70  61  73 SE16      29.58F
HALSTAD          N/A     71  63  73 E21         N/A
FOSSTON        FAIR      66  61  82 SE13G23   29.58F
BAUDETTE       PTSUNNY   68  59  73 SE12G22   29.69F
WASKISH        FAIR      66  61  82 E9        29.67F
CROOKSTON      LGT RAIN  72  63  73 SE12      29.53F
$$
  *****  WEATHER ACROSS CENTRAL AND WEST MINNESOTA  *****

CITY           SKY/WX    TMP DP  RH WIND       PRES   REMARKS
BEMIDJI        FAIR      67  61  79 SE16G22   29.64F
PARK RAPIDS    CLOUDY    72  63  73 SE20      29.64F
WADENA         PTSUNNY   72  63  73 SE16G22   29.60F
DETROIT LAKES  PTSUNNY   72  61  68 SE25G35   29.56F
MOORHEAD       FAIR      73  63  68 SE20G32   29.43F
FERGUS FALLS   FAIR      73  64  73 SE21G28   29.50F
ELBOW LAKE     FAIR      72  65  79 SE21G29   29.53F HAZE
MORRIS MN      FAIR      75  66  73 SE22G29   29.52F
STAPLES        PTSUNNY   72  61  68 SE9       29.64F
WHEATON        FAIR      75  64  69 SE23G33   29.50F
$$
  *****  WEATHER ELSEWHERE ACROSS MINNESOTA  *****

CITY           SKY/WX    TMP DP  RH WIND       PRES   REMARKS
DULUTH         FAIR      62  55  77 E16G23    29.82F
INTRNTL FALLS  FAIR      68  59  73 SE8       29.74F
ELY            FAIR      63  54  72 SE13      29.83F
CLOQUET        CLOUDY    61  55  82 E12       29.80F
BRAINERD       FAIR      71  62  73 SE10G20   29.69F
HIBBING        FAIR      67  60  78 SE14      29.78F
ALEXANDRIA     FAIR      73  64  73 SE22G28   29.61F
SAINT CLOUD    FAIR      75  64  68 SE16G22   29.67F
MINNEAPOLIS    CLOUDY    77  63  61 SE16      29.71F
$$

  *****  WEATHER ACROSS SOUTH DAKOTA  *****

CITY           SKY/WX    TMP DP  RH WIND       PRES   REMARKS
SIOUX FALLS    CLOUDY    80  70  71 SE15G26   29.51F
BROOKINGS      PTSUNNY   75  67  76 S22G28    29.53S
WATERTOWN      PTSUNNY   75  67  76 S18G31    29.51R
HURON          FAIR      82  68  62 S22G32    29.45R
SISSETON         N/A     76  67  73 SE20G26   29.47F
ABERDEEN       FAIR      81  67  62 S23G32    29.42F
MITCHELL       CLOUDY    83  68  60 S23G33    29.46R
PIERRE         PTSUNNY   76  51  41 NW26G33   29.47R
MOBRIDGE       FAIR      75  65  70 W8        29.44R
RAPID CITY     LGT RAIN  61  48  63 W6        29.64R
$$

  *****  SOME WEATHER IN NEARBY STATES *****

CITY           SKY/WX    TMP DP  RH WIND       PRES   REMARKS
GLASGOW MT       N/A     58  35  42 W17       29.55S
GREAT FALLS MT FAIR      53  28  38 SW18      29.64R
CHEYENNE WY    FAIR      55  29  36 N29G41    29.79R
SCOTTSBLUFF NE FAIR      65  36  34 NW28G41   29.70R
OMAHA NE       PTSUNNY   87  67  51 S24G37    29.59F HX  90
DES MOINES IA  FAIR      83  67  58 SE23G29   29.72F
DAVENPORT IA   FAIR      76  65  68 SE14      29.87F
CHICAGO IL     FAIR      74  62  66 E10       29.91F
EAU CLAIRE WI  FAIR      76  61  59 SE15      29.80F
LA CROSSE WI   FAIR      81  63  54 SE9       29.80F
$$

  *****  SOME NATIONAL WEATHER *****

CITY           SKY/WX    TMP DP  RH WIND       PRES   REMARKS
LA GUARDIA NY  LGT RAIN  73  66  78 NE21G28   29.88S
RALEIGH NC     FAIR      81  61  50 N3        29.93R
ATLANTA GA     MOCLDY    85  62  46 N8        29.98R
NEW ORLEANS LA PTSUNNY   85  73  67 S7        29.92S HX  91
OKLAHOMA CITY  FAIR      91  68  46 S20G26    29.72S HX  95
ALBUQUERQUE NM FAIR      86  14   7 W17G28    29.91F
SALT LAKE CITY PTSUNNY   62  35  36 N10       29.91F
LOS ANGELES CA FAIR      74  62  66 SW14      29.87F
BOISE ID       PTSUNNY   59  34  39 W8        29.87F
SEATTLE WA     PTSUNNY   59  50  72 S10       29.74S
$$

*** WEATHER ACROSS MANITOBA...SASKATCHEWAN AND ONTARIO ***
                ***ONTARIO***

CITY           SKY/WX    TMP DP  RH WIND       PRES   REMARKS
GERALDTON      MOCLDY    64  46  52 S7        30.02S
THUNDER BAY    MOCLDY    59  54  82 E17       29.94F
SIOUX LOOKOUT  CLOUDY    64  57  77 SE7       29.84S
TORONTO        MOCLDY    75  64  69 E6        29.98S
BIG TROUT LK   CLEAR     57  39  51 SE5       29.98R
PICKLE LAKE    CLOUDY    57  54  88 E9        29.93F
DRYDEN         MOSUNNY   64  57  77 E7        29.79F
KENORA         CLOUDY    64  59  82 SE12G17   29.72F
$$
                *** MANITOBA***

CITY           SKY/WX    TMP DP  RH WIND       PRES   REMARKS
BRANDON        LGT RAIN  61  59  94 S10G20    29.42F
DAUPHIN        RAIN      59  59 100 SE20G36   29.41S
ISLAND LAKE    NOT AVBL
PILOT MOUND      N/A     64  61  88 SE17G23     N/A
THE PAS        LGT RAIN  54  48  82 E13G18    29.55F
THOMPSON       CLOUDY    57  36  44 E9G20     29.84S
WINNIPEG       CLOUDY    64  59  82 E16G24    29.52F
LYNN LAKE      PTSUNNY   55  37  50 E14G20    29.81R
CHURCHILL      MOCLDY    45  39  81 E14       30.04R
GILLAM         PTSUNNY   55  37  50 E6        29.93S
$$
                ***SASKATCHEWAN***

CITY           SKY/WX    TMP DP  RH WIND       PRES   REMARKS
ESTEVAN        MOSUNNY   59  48  67 W14G22    29.47R
KINDERSLEY     PTSUNNY   52  37  58 NW12G20   29.48R
LLOYDMINSTER   CLOUDY    45  37  76 W12       29.44R
PRINCE ALBERT  LGT RAIN  54  52  94 E16       29.37F FOG
REGINA         PTSUNNY   57  45  62 W21G26    29.44R
YORKTON        CLOUDY    57  54  88 SW13      29.36S



USA.gov is the U.S. government's official web portal to all federal, state and local government web resources and services.